Hourly Data Report for September 17, 2017

All times are specified in Local Standard Time (LST). Add 1 hour to adjust for Daylight Saving Time where and when it is observed.

PANGNIRTUNG
NUNAVUT

66°08'36.300" N
65°42'40.500" W
22.60 m
2403049
71826
WXP

Download Data

Hourly Data (September 2017)
Hourly Data Report for September 17, 2017
Temp Definition
°C
Dew Point Temp Definition
°C
Rel Hum Definition
%
Wind Dir Definition
10's deg

Wind Spd Definition
km/h
Visibility Definition
km
Stn Press Definition
kPa
Hmdx Definition


Wind Chill Definition


Weather Definition


TIME
00:00 2.5 -3.0 67 29 19   100.40     LegendNANA
01:00 2.6 -2.9 67 31 16   100.43     LegendNANA
02:00 2.4 -2.5 70 27 17   100.47     LegendNANA
03:00 1.4 -2.7 74 27 17   100.55     LegendNANA
04:00 1.3 -3.2 72 31 19   100.60     LegendNANA
05:00 0.8 -3.4 73 30 12   100.70     LegendNANA
06:00 0.8 -3.5 73 32 10   100.80     LegendNANA
07:00 1.5 -3.5 70 21 7   100.88     LegendNANA
08:00 1.6 -3.3 70 4 3   100.94     LegendNANA
09:00 3.0 -3.7 61 9 2   101.00     LegendNANA
10:00 3.5 -2.9 63 4 2   101.05     LegendNANA
11:00 2.8 -2.0 71 36 3   101.05     LegendNANA
12:00 3.8 -1.5 68 28 8   101.09     LegendNANA
13:00 4.4 -0.9 68 27 20   101.14     LegendNANA
14:00 4.3 -0.4 71 24 18   101.17     LegendNANA
15:00 4.5 -0.3 71 25 18   101.22     LegendNANA
16:00 4.1 -1.7 66 27 18   101.25     LegendNANA
17:00 3.8 -1.6 68 25 16   101.28     LegendNANA
18:00 3.0 -1.9 70 25 18   101.31     LegendNANA
19:00 2.3 -1.6 75 24 17   101.32     LegendNANA
20:00 2.2 -1.3 77 24 18   101.36     LegendNANA
21:00 2.6 -1.9 72 21 15   101.35     LegendNANA
22:00 1.7 -1.5 79 24 12   101.36     LegendNANA
23:00 0.9 -1.9 82 25 16   101.38     LegendNANA

Notes on Data Quality.

Legend

  • E = Estimated
  • M = Missing
  • NA = Not Available
  • ‡ = Partner data that is not subject to review by the National Climate Archives
Date modified: